Location: Buckland
(65.9785°N, 161.1281°W)
Time: 03:32:30
(UTC+00:00)

Transit 4A - Pass Details

Date: 29 November 2020
Orbit: 864 x 980 km, 66.8° (Epoch: 26 January)

Event Time Altitude Azimuth Distance (km) Brightness Sun altitude
Rises 21:45:51 0° 252° (WSW) 3,675 11.1 1.9°
Reaches altitude 10° 21:48:25 10° 253° (WSW) 2,734 10.5 1.9°
Maximum altitude 21:54:52 90° 325° (NW) 991 8.2 2.1°
Drops below altitude 10° 22:01:18 10° 76° (ENE) 2,730 10.3 2.1°
Sets 22:03:51 0° 76° (ENE) 3,668 10.9 2.2°
